Home   Weather   Kerpen   Past weeks

Flag for Germany Past Weather in Kerpen, North Rhine-Westphalia, Germany — Yesterday and Last 2 Weeks

Now
75 °F

Partly sunny.


Feels Like: 78 °F
Forecast: 55 / 64 °F
Wind: 12 mph from Southwest

Location: Noervenich

Current Time: Sep 29, 2016 at 3:39:28 PM

Latest Report: Sep 29, 2016 at 2:20 PM


Visibility: N/A

Pressure: 29.98 "Hg

Humidity: 44%

Dew Point: 52 °F

Location of KerpenLocation

Past Weather in Kerpen — Graph

°F

Kerpen Temperature Yesterday

Maximum temperature yesterday: 73 °F (at 5:20 PM)
Minimum temperature yesterday: 55 °F (at 3:20 AM)
Average temperature yesterday: 63 °F

High & Low Weather Summary for the Past Weeks

 TemperatureHumidityPressure
High90 °F (Sep 14, 4:20 PM)100% (Sep 18, 5:20 AM)30.33 "Hg (Sep 18, 5:20 AM)
Low46 °F (Sep 22, 2:20 AM)27% (Sep 14, 4:20 PM)29.80 "Hg (Sep 15, 2:20 PM)
Average62 °F70%30.11 "Hg
* Reported Sep 14 2:20 PM — Sep 29 2:20 PM, Kerpen, Weather by CustomWeather, © 2016

Note: Actual official high and low records may vary slightly from our data, if they occured in-between our weather recording intervals... More about our weather records

Advertising

Kerpen Weather History for the Previous 24 Hours

Scroll right to see more
 ConditionsComfort  
Time TempWeatherWind HumidityBarometerVisibility
2:20 PM
Thu, Sep 29
75 °FPartly sunny.12 mph44%29.98 "HgN/A
1:20 PM73 °FPassing clouds.12 mph53%30.01 "HgN/A
12:20 PM73 °FPassing clouds.10 mph53%30.04 "HgN/A
11:20 AM70 °FPassing clouds.10 mph60%30.07 "HgN/A
10:20 AM68 °FPassing clouds.7 mph64%30.09 "HgN/A
9:20 AM64 °FPassing clouds.6 mph73%30.09 "HgN/A
8:20 AM59 °FPassing clouds.5 mph82%30.09 "HgN/A
7:20 AM59 °FPassing clouds.6 mph82%30.12 "HgN/A
6:20 AM57 °FPassing clouds.5 mph88%30.15 "HgN/A
5:20 AM59 °FPassing clouds.3 mph82%30.15 "HgN/A
4:20 AM61 °FPassing clouds.7 mph77%30.18 "HgN/A
3:20 AM63 °FPassing clouds.8 mph73%30.18 "HgN/A
2:20 AM59 °FPassing clouds.6 mph82%30.21 "HgN/A
1:20 AM57 °FPassing clouds.3 mph88%30.21 "HgN/A
12:20 AM61 °FPassing clouds.2 mph77%30.21 "HgN/A
11:20 PM
Wed, Sep 28
63 °FPassing clouds.6 mph73%30.24 "HgN/A
10:20 PM63 °FPassing clouds.5 mph73%30.24 "HgN/A
9:20 PM64 °FPassing clouds.5 mph68%30.24 "HgN/A
8:20 PM66 °FPassing clouds.5 mph64%30.27 "HgN/A
7:20 PM68 °FPassing clouds.7 mph56%30.27 "HgN/A
6:20 PM70 °FPartly sunny.10 mph53%30.27 "HgN/A
5:20 PM73 °FPassing clouds.16 mph44%30.27 "HgN/A
4:20 PM72 °FPartly sunny.14 mph50%30.27 "HgN/A
3:20 PM72 °FPartly sunny.14 mph50%30.27 "HgN/A
Weather by CustomWeather, © 2016

See weather overviewHow to use our weather pages